Flag for Netherlands Weather past 2 weeks in Amersfoort, Netherlands

Now
54 °F

Overcast.


Feels Like: 54 °F
Forecast: 56 / 70 °F
Wind: No wind

Location: Deelen

Current Time: Sep 2, 2014 at 2:04:40 AM

Latest Report: Sep 2, 2014 at 1:25 AM


Visibility: N/A

Pressure: 30.15 "Hg

Humidity: 100%

Dew point: 54 °F

Location of AmersfoortLocation

Historic Weather in Amersfoort — Graph

°F

Amersfoort temperature yesterday

Maximum temperature yesterday: 68 °F (at 4:55 PM)
Minimum temperature yesterday: 46 °F (at 6:25 AM)
Average temperature yesterday: 57 °F

Past Weeks' High & Low Weather Summary

 TemperatureHumidityPressure
High70 °F (Aug 27, 3:55 PM)100% (Aug 18, 1:55 AM)30.15 "Hg (Aug 18, 1:55 AM)
Low43 °F (Aug 25, 12:55 AM)49% (Aug 23, 5:55 PM)29.62 "Hg (Aug 18, 2:55 AM)
Average56 °F86%29.92 "Hg
* Reported Aug 18 12:25 AM — Sep 2 12:55 AM, Amersfoort, Weather by CustomWeather, © 2014

Note: Actual official high and low records may vary slightly from our data, if they occured in-between our weather recording intervals... More about our weather records

Advertising

Amersfoort weather history for previous 24 hours

 ConditionsComfort  
Time TempWeatherWind HumidityBarometerVisibility
12:55 AM
Sep 2
54 °FMostly cloudy.No wind100%30.15 "HgN/A
12:25 AM54 °FMostly cloudy.1 mph100%30.15 "HgN/A
11:55 PM
Sep 1
54 °FPassing clouds.1 mph94%30.15 "HgN/A
11:25 PM54 °FPassing clouds.3 mph100%30.15 "HgN/A
10:55 PM55 °FPassing clouds.3 mph100%30.15 "HgN/A
10:25 PM57 °FOvercast.1 mph94%30.15 "HgN/A
9:55 PM57 °FOvercast.1 mph94%30.12 "HgN/A
9:25 PM59 °FOvercast.1 mph88%30.12 "HgN/A
8:55 PM59 °FOvercast.No wind88%30.12 "HgN/A
8:25 PM61 °FOvercast.2 mph88%30.12 "HgN/A
7:55 PM63 °FOvercast.3 mph77%30.12 "HgN/A
7:25 PM64 °FOvercast.7 mph68%30.12 "HgN/A
6:55 PM66 °FPartly sunny.5 mph64%30.12 "HgN/A
6:25 PM66 °FOvercast.8 mph64%30.12 "HgN/A
5:55 PM68 °FPartly sunny.6 mph56%30.12 "HgN/A
5:25 PM68 °FPartly sunny.6 mph60%30.12 "HgN/A
4:55 PM68 °FPartly sunny.8 mph60%30.12 "HgN/A
4:25 PM66 °FMore clouds than sun.7 mph68%30.12 "HgN/A
3:55 PM66 °FPartly sunny.7 mph68%30.12 "HgN/A
3:25 PM66 °FPartly sunny.8 mph64%30.12 "HgN/A
2:55 PM66 °FPartly sunny.7 mph64%30.12 "HgN/A
2:25 PM64 °FPassing clouds.8 mph73%30.12 "HgN/A
1:55 PM64 °FOvercast.5 mph68%30.12 "HgN/A
1:25 PM64 °FPartly sunny.3 mph64%30.12 "HgN/A
12:55 PM64 °FPartly sunny.6 mph73%30.12 "HgN/A
12:25 PM64 °FMostly cloudy.8 mph68%30.12 "HgN/A
11:55 AM63 °FPartly sunny.5 mph73%30.12 "HgN/A
11:25 AM63 °FPartly sunny.6 mph77%30.12 "HgN/A
10:55 AM61 °FScattered clouds.6 mph83%30.12 "HgN/A
10:25 AM59 °FPartly sunny.6 mph88%30.12 "HgN/A
9:55 AM59 °FPassing clouds.5 mph94%30.12 "HgN/A
9:25 AM54 °FCool.1 mph100%30.12 "HgN/A
8:55 AM52 °FFog.1 mph100%30.12 "Hg5 mi
8:25 AM50 °FFog.1 mph100%30.12 "Hg1 mi
7:55 AM48 °FFog.1 mph100%30.09 "Hg0 mi
7:25 AM46 °FFog.1 mph100%30.09 "Hg0 mi
6:55 AM46 °FFog.1 mph100%30.09 "Hg0 mi
6:25 AM46 °FFog.1 mph100%30.09 "Hg1 mi
5:55 AM48 °FFog.1 mph94%30.09 "Hg0 mi
5:25 AM48 °FFog.1 mph94%30.09 "Hg1 mi
4:55 AM48 °FFog.No wind100%30.09 "Hg1 mi
4:25 AM48 °FFog.No wind100%30.09 "Hg0 mi
3:55 AM48 °FFog.1 mph100%30.09 "Hg0 mi
3:25 AM48 °FFog.1 mph100%30.07 "Hg0 mi
2:55 AM48 °FFog.1 mph100%30.07 "Hg0 mi
2:25 AM48 °FFog.No wind100%30.07 "Hg0 mi
Weather by CustomWeather, © 2014

See weather overviewHow to use our weather pages